Skip Page Navigation
NASA JPL Caltech
NASA Logo - Jet Propulsion Laboratory + View the NASA Portal
+ Center for Near-Earth Object Studies
JPL Home Earth Solar System Stars & Galaxies Technology
JPL Solar System Dynamics
BODIES ORBITS EPHEMERIDES TOOLS PHYSICAL DATA DISCOVERY FAQ SITE MAP
JPL Small-Body Database Browser
Search: [ help ]  
135858 (2002 SO58)
Classification: Main-belt Asteroid          SPK-ID: 2135858
Ephemeris | Orbit Diagram | Orbital Elements | Mission Design | Physical Parameters | Discovery Circumstances | Close-Approach Data ]

[ show orbit diagram ]
Orbital Elements at Epoch 2459200.5 (2020-Dec-17.0) TDB
Reference: JPL 24 (heliocentric ecliptic J2000)
 Element Value Uncertainty (1-sigma)   Units 
e .2066239846208817 3.5172e-08  
a 2.716088631601429 1.1576e-08 au
q 2.154879575956464 9.1786e-08 au
i 11.04712545562747 3.3834e-06 deg
node 172.4186066664319 2.1823e-05 deg
peri 202.6181830448947 2.457e-05 deg
M 37.42979735990568 9.787e-06 deg
tp 2459030.507677017736
(2020-Jun-30.00767702)
4.4355e-05 TDB
period 1634.987111609871
4.48
1.0452e-05
2.862e-08
d
yr
n .2201852219162328 1.4076e-09 deg/d
Q 3.277297687246395 1.3968e-08 au
  Orbit Determination Parameters
   # obs. used (total)      865  
   data-arc span      10922 days (29.90 yr)  
   first obs. used      1991-03-20  
   last obs. used      2021-02-12  
   planetary ephem.      DE441  
   SB-pert. ephem.      SB441-N16  
   condition code      0  
   norm. resid. RMS      .49364  
   source      ORB  
   producer      Otto Matic  
   solution date      2021-Apr-13 18:14:54  

Additional Information
 Earth MOID = 1.15785 au 
 Jupiter MOID = 2.19472 au 
 T_jup = 3.303 
[ show covariance matrix ]

Ephemeris | Orbit Diagram | Orbital Elements | Mission Design | Physical Parameters | Discovery Circumstances | Close-Approach Data ]

Physical Parameter Table
Parameter Symbol Value Units Sigma Reference Notes
absolute magnitude H 15.39   n/a MPCxxxxx  

135858 (2002 SO58)          Discovered 2002-Sep-30 by NEAT at Haleakala
Reference: 20060907/Numbers.arcLast Updated: 2006-09-10

[ show close-approach data ]
Ephemeris | Orbit Diagram | Orbital Elements | Mission Design | Physical Parameters | Discovery Circumstances | Close-Approach Data ]
ABOUT SSD CREDITS/AWARDS PRIVACY/COPYRIGHT GLOSSARY LINKS
FirstGov 2021-May-14 12:43 UT
(server date/time)  
NASA Home Page
Site Manager:   Ryan S. Park
Webmaster  Alan B. Chamberlin